Time,TemperatureF,DewpointF,PressureIn,WindDirection,WindDirectionDegrees,WindSpeedMPH,WindSpeedGustMPH,Humidity,HourlyPrecipIn,Conditions,Clouds,dailyrainin,SolarRadiationWatts/m^2,SoftwareType,DateUTC
2013-05-29 00:01:00,46.0,42.0,-100.00,WSW,250,2.0,5.0,86,0.04,,,0.04,0.000000,,2013-05-29 07:01:00,
2013-05-29 00:11:00,46.0,42.0,-100.00,WSW,250,2.0,5.0,86,0.04,,,0.04,0.000000,,2013-05-29 07:11:00,
2013-05-29 00:21:00,46.0,42.0,-100.00,WSW,250,2.0,5.0,86,0.04,,,0.04,0.000000,,2013-05-29 07:21:00,
2013-05-29 00:31:00,45.0,44.0,-100.00,South,191,4.0,6.0,95,0.20,,,0.24,0.000000,,2013-05-29 07:31:00,
2013-05-29 00:52:00,45.0,44.0,-100.00,South,191,4.0,6.0,95,0.20,,,0.24,0.000000,,2013-05-29 07:52:00,
2013-05-29 01:02:00,45.0,44.0,-100.00,South,191,4.0,6.0,95,0.20,,,0.24,0.000000,,2013-05-29 08:02:00,
2013-05-29 01:11:00,45.0,44.0,-100.00,South,191,4.0,6.0,95,0.20,,,0.24,0.000000,,2013-05-29 08:11:00,
2013-05-29 01:21:00,45.0,44.0,-100.00,South,191,4.0,6.0,95,0.20,,,0.24,0.000000,,2013-05-29 08:21:00,
2013-05-29 01:31:00,45.0,44.0,-100.00,WSW,240,3.0,6.0,96,0.10,,,0.34,0.000000,,2013-05-29 08:31:00,
2013-05-29 01:52:00,45.0,44.0,-100.00,WSW,240,3.0,6.0,96,0.10,,,0.34,0.000000,,2013-05-29 08:52:00,
2013-05-29 02:01:00,45.0,44.0,-100.00,WSW,240,3.0,6.0,96,0.10,,,0.34,0.000000,,2013-05-29 09:01:00,
2013-05-29 02:11:00,45.0,44.0,-100.00,WSW,240,3.0,6.0,96,0.10,,,0.34,0.000000,,2013-05-29 09:11:00,
2013-05-29 02:21:00,45.0,44.0,-100.00,WSW,240,3.0,6.0,96,0.10,,,0.34,0.000000,,2013-05-29 09:21:00,
2013-05-29 02:31:00,45.0,44.0,-100.00,ESE,105,1.0,5.0,96,0.06,,,0.40,0.000000,,2013-05-29 09:31:00,
2013-05-29 02:52:00,45.0,44.0,-100.00,ESE,105,1.0,5.0,96,0.06,,,0.40,0.000000,,2013-05-29 09:52:00,
2013-05-29 03:02:00,45.0,44.0,-100.00,ESE,105,1.0,5.0,96,0.06,,,0.40,0.000000,,2013-05-29 10:02:00,
2013-05-29 03:12:00,45.0,44.0,-100.00,ESE,105,1.0,5.0,96,0.06,,,0.40,0.000000,,2013-05-29 10:12:00,
2013-05-29 03:22:00,45.0,44.0,-100.00,ESE,105,1.0,5.0,96,0.06,,,0.40,0.000000,,2013-05-29 10:22:00,
2013-05-29 03:31:00,45.0,44.0,-100.00,SW,236,2.0,6.0,96,0.01,,,0.41,0.000000,,2013-05-29 10:31:00,
2013-05-29 03:53:00,45.0,44.0,-100.00,SW,236,2.0,6.0,96,0.01,,,0.41,0.000000,,2013-05-29 10:53:00,
2013-05-29 04:02:00,45.0,44.0,-100.00,SW,236,2.0,6.0,96,0.01,,,0.41,0.000000,,2013-05-29 11:02:00,
2013-05-29 04:11:00,45.0,44.0,-100.00,SW,236,2.0,6.0,96,0.01,,,0.41,0.000000,,2013-05-29 11:11:00,
2013-05-29 04:21:00,45.0,44.0,-100.00,SW,236,2.0,6.0,96,0.01,,,0.41,0.000000,,2013-05-29 11:21:00,
2013-05-29 04:31:00,45.0,44.0,-100.00,SSW,200,5.0,10.0,97,0.07,,,0.48,0.000000,,2013-05-29 11:31:00,
2013-05-29 04:52:00,45.0,44.0,-100.00,SSW,200,5.0,10.0,97,0.07,,,0.48,0.000000,,2013-05-29 11:52:00,
2013-05-29 05:01:00,45.0,44.0,-100.00,SSW,200,5.0,10.0,97,0.07,,,0.48,0.000000,,2013-05-29 12:01:00,
2013-05-29 05:11:00,45.0,44.0,-100.00,SSW,200,5.0,10.0,97,0.07,,,0.48,0.000000,,2013-05-29 12:11:00,
2013-05-29 05:21:00,45.0,44.0,-100.00,SSW,200,5.0,10.0,97,0.07,,,0.48,0.000000,,2013-05-29 12:21:00,
2013-05-29 05:31:00,43.0,41.0,-100.00,SW,235,7.0,19.0,91,0.04,,,0.52,0.000000,,2013-05-29 12:31:00,
2013-05-29 05:52:00,43.0,41.0,-100.00,SW,235,7.0,19.0,91,0.04,,,0.52,0.000000,,2013-05-29 12:52:00,
2013-05-29 06:01:00,43.0,41.0,-100.00,SW,235,7.0,19.0,91,0.04,,,0.52,0.000000,,2013-05-29 13:01:00,
2013-05-29 06:11:00,43.0,41.0,-100.00,SW,235,7.0,19.0,91,0.04,,,0.52,0.000000,,2013-05-29 13:11:00,
2013-05-29 06:21:00,43.0,41.0,-100.00,SW,235,7.0,19.0,91,0.04,,,0.52,0.000000,,2013-05-29 13:21:00,
2013-05-29 06:31:00,44.0,39.0,-100.00,SSW,193,9.0,17.0,84,0.01,,,-99.99,23.000000,,2013-05-29 13:31:00,
2013-05-29 06:53:00,44.0,39.0,-100.00,SSW,193,9.0,17.0,84,0.01,,,-99.99,23.000000,,2013-05-29 13:53:00,
2013-05-29 07:02:00,44.0,39.0,-100.00,SSW,193,9.0,17.0,84,0.01,,,-99.99,23.000000,,2013-05-29 14:02:00,
2013-05-29 07:11:00,44.0,39.0,-100.00,SSW,193,9.0,17.0,84,0.01,,,-99.99,23.000000,,2013-05-29 14:11:00,
2013-05-29 07:21:00,44.0,39.0,-100.00,SSW,193,9.0,17.0,84,0.01,,,-99.99,23.000000,,2013-05-29 14:21:00,
2013-05-29 07:31:00,45.0,41.0,-100.00,South,191,9.0,15.0,87,0.00,,,0.53,111.000000,,2013-05-29 14:31:00,
2013-05-29 07:52:00,45.0,41.0,-100.00,South,191,9.0,15.0,87,0.00,,,0.53,111.000000,,2013-05-29 14:52:00,
2013-05-29 08:01:00,45.0,41.0,-100.00,South,191,9.0,15.0,87,0.00,,,0.53,111.000000,,2013-05-29 15:01:00,
2013-05-29 08:11:00,45.0,41.0,-100.00,South,191,9.0,15.0,87,0.00,,,0.53,111.000000,,2013-05-29 15:11:00,
2013-05-29 08:21:00,45.0,41.0,-100.00,South,191,9.0,15.0,87,0.00,,,0.53,111.000000,,2013-05-29 15:21:00,
2013-05-29 08:31:00,46.0,43.0,-100.00,SW,216,6.0,18.0,88,0.00,,,0.53,186.000000,,2013-05-29 15:31:00,
2013-05-29 08:53:00,46.0,43.0,-100.00,SW,216,6.0,18.0,88,0.00,,,0.53,186.000000,,2013-05-29 15:53:00,
2013-05-29 09:03:00,46.0,43.0,-100.00,SW,216,6.0,18.0,88,0.00,,,0.53,186.000000,,2013-05-29 16:03:00,
2013-05-29 09:12:00,46.0,43.0,-100.00,SW,216,6.0,18.0,88,0.00,,,0.53,186.000000,,2013-05-29 16:12:00,
2013-05-29 09:22:00,46.0,43.0,-100.00,SW,216,6.0,18.0,88,0.00,,,0.53,186.000000,,2013-05-29 16:22:00,
2013-05-29 09:31:00,46.0,40.0,-100.00,SSW,200,9.0,22.0,80,0.01,,,0.54,205.000000,,2013-05-29 16:31:00,
2013-05-29 09:52:00,46.0,40.0,-100.00,SSW,200,9.0,22.0,80,0.01,,,0.54,205.000000,,2013-05-29 16:52:00,
2013-05-29 10:02:00,46.0,40.0,-100.00,SSW,200,9.0,22.0,80,0.01,,,0.54,205.000000,,2013-05-29 17:02:00,
2013-05-29 10:12:00,46.0,40.0,-100.00,SSW,200,9.0,22.0,80,0.01,,,0.54,205.000000,,2013-05-29 17:12:00,
2013-05-29 10:22:00,46.0,40.0,-100.00,SSW,200,9.0,22.0,80,0.01,,,0.54,205.000000,,2013-05-29 17:22:00,
2013-05-29 10:31:00,48.0,39.0,-100.00,SW,225,11.0,26.0,72,0.00,,,0.54,337.000000,,2013-05-29 17:31:00,
2013-05-29 10:52:00,48.0,39.0,-100.00,SW,225,11.0,26.0,72,0.00,,,0.54,337.000000,,2013-05-29 17:52:00,
2013-05-29 11:01:00,48.0,39.0,-100.00,SW,225,11.0,26.0,72,0.00,,,0.54,337.000000,,2013-05-29 18:01:00,
2013-05-29 11:13:00,48.0,39.0,-100.00,SW,225,11.0,26.0,72,0.00,,,0.54,337.000000,,2013-05-29 18:13:00,
2013-05-29 11:22:00,48.0,39.0,-100.00,SW,225,11.0,26.0,72,0.00,,,0.54,337.000000,,2013-05-29 18:22:00,
2013-05-29 11:31:00,50.0,40.0,-100.00,SW,214,12.0,32.0,68,0.00,,,0.54,554.000000,,2013-05-29 18:31:00,
2013-05-29 11:52:00,50.0,40.0,-100.00,SW,214,12.0,32.0,68,0.00,,,0.54,554.000000,,2013-05-29 18:52:00,
2013-05-29 12:01:00,50.0,40.0,-100.00,SW,214,12.0,32.0,68,0.00,,,0.54,554.000000,,2013-05-29 19:01:00,
2013-05-29 12:11:00,50.0,40.0,-100.00,SW,214,12.0,32.0,68,0.00,,,0.54,554.000000,,2013-05-29 19:11:00,
2013-05-29 12:21:00,50.0,40.0,-100.00,SW,214,12.0,32.0,68,0.00,,,0.54,554.000000,,2013-05-29 19:21:00,
2013-05-29 12:31:00,52.0,39.0,-100.00,SW,233,13.0,26.0,62,0.00,,,0.54,884.000000,,2013-05-29 19:31:00,
2013-05-29 12:53:00,52.0,39.0,-100.00,SW,233,13.0,26.0,62,0.00,,,0.54,884.000000,,2013-05-29 19:53:00,
2013-05-29 13:02:00,52.0,39.0,-100.00,SW,233,13.0,26.0,62,0.00,,,0.54,884.000000,,2013-05-29 20:02:00,
2013-05-29 13:11:00,52.0,39.0,-100.00,SW,233,13.0,26.0,62,0.00,,,0.54,884.000000,,2013-05-29 20:11:00,
2013-05-29 13:22:00,52.0,39.0,-100.00,SW,233,13.0,26.0,62,0.00,,,0.54,884.000000,,2013-05-29 20:22:00,
2013-05-29 13:31:00,51.0,38.0,-100.00,WSW,255,12.0,30.0,60,0.00,,,0.54,1022.000000,,2013-05-29 20:31:00,
2013-05-29 13:52:00,51.0,38.0,-100.00,WSW,255,12.0,30.0,60,0.00,,,0.54,1022.000000,,2013-05-29 20:52:00,
2013-05-29 14:02:00,51.0,38.0,-100.00,WSW,255,12.0,30.0,60,0.00,,,0.54,1022.000000,,2013-05-29 21:02:00,
2013-05-29 14:12:00,51.0,38.0,-100.00,WSW,255,12.0,30.0,60,0.00,,,0.54,1022.000000,,2013-05-29 21:12:00,
2013-05-29 14:22:00,51.0,38.0,-100.00,WSW,255,12.0,30.0,60,0.00,,,0.54,1022.000000,,2013-05-29 21:22:00,
2013-05-29 14:31:00,53.0,39.0,-100.00,WSW,257,12.0,26.0,59,0.00,,,0.54,957.000000,,2013-05-29 21:31:00,
2013-05-29 14:53:00,53.0,39.0,-100.00,WSW,257,12.0,26.0,59,0.00,,,0.54,957.000000,,2013-05-29 21:53:00,
2013-05-29 15:03:00,53.0,39.0,-100.00,WSW,257,12.0,26.0,59,0.00,,,0.54,957.000000,,2013-05-29 22:03:00,
2013-05-29 15:12:00,53.0,39.0,-100.00,WSW,257,12.0,26.0,59,0.00,,,0.54,957.000000,,2013-05-29 22:12:00,
2013-05-29 15:23:00,53.0,39.0,-100.00,WSW,257,12.0,26.0,59,0.00,,,0.54,957.000000,,2013-05-29 22:23:00,
2013-05-29 15:31:00,54.0,41.0,-100.00,WSW,247,8.0,25.0,61,0.00,,,0.54,886.000000,,2013-05-29 22:31:00,
2013-05-29 15:53:00,54.0,41.0,-100.00,WSW,247,8.0,25.0,61,0.00,,,0.54,886.000000,,2013-05-29 22:53:00,
2013-05-29 16:02:00,54.0,41.0,-100.00,WSW,247,8.0,25.0,61,0.00,,,0.54,886.000000,,2013-05-29 23:02:00,
2013-05-29 16:12:00,54.0,41.0,-100.00,WSW,247,8.0,25.0,61,0.00,,,0.54,886.000000,,2013-05-29 23:12:00,
2013-05-29 16:21:00,54.0,41.0,-100.00,WSW,247,8.0,25.0,61,0.00,,,0.54,886.000000,,2013-05-29 23:21:00,
2013-05-29 16:31:00,53.0,41.0,-100.00,WSW,249,6.0,19.0,63,0.00,,,0.54,700.000000,,2013-05-29 23:31:00,
2013-05-29 16:53:00,53.0,41.0,-100.00,WSW,249,6.0,19.0,63,0.00,,,0.54,700.000000,,2013-05-29 23:53:00,
2013-05-29 17:01:00,53.0,41.0,-100.00,WSW,249,6.0,19.0,63,0.00,,,0.54,700.000000,,2013-05-30 00:01:00,
2013-05-29 17:11:00,53.0,41.0,-100.00,WSW,249,6.0,19.0,63,0.00,,,0.54,700.000000,,2013-05-30 00:11:00,
2013-05-29 17:21:00,53.0,41.0,-100.00,WSW,249,6.0,19.0,63,0.00,,,0.54,700.000000,,2013-05-30 00:21:00,
2013-05-29 17:31:00,50.0,38.0,-100.00,WSW,243,8.0,21.0,64,0.00,,,0.54,344.000000,,2013-05-30 00:31:00,
2013-05-29 17:52:00,50.0,38.0,-100.00,WSW,243,8.0,21.0,64,0.00,,,0.54,344.000000,,2013-05-30 00:52:00,
2013-05-29 18:01:00,50.0,38.0,-100.00,WSW,243,8.0,21.0,64,0.00,,,0.54,344.000000,,2013-05-30 01:01:00,
2013-05-29 18:11:00,50.0,38.0,-100.00,WSW,243,8.0,21.0,64,0.00,,,0.54,344.000000,,2013-05-30 01:11:00,
2013-05-29 18:21:00,50.0,38.0,-100.00,WSW,243,8.0,21.0,64,0.00,,,0.54,344.000000,,2013-05-30 01:21:00,
2013-05-29 18:31:00,47.0,37.0,-100.00,WSW,257,6.0,17.0,69,0.00,,,0.54,186.000000,,2013-05-30 01:31:00,
2013-05-29 18:52:00,47.0,37.0,-100.00,WSW,257,6.0,17.0,69,0.00,,,0.54,186.000000,,2013-05-30 01:52:00,
2013-05-29 19:01:00,47.0,37.0,-100.00,WSW,257,6.0,17.0,69,0.00,,,0.54,186.000000,,2013-05-30 02:01:00,
2013-05-29 19:11:00,47.0,37.0,-100.00,WSW,257,6.0,17.0,69,0.00,,,0.54,186.000000,,2013-05-30 02:11:00,
2013-05-29 19:21:00,47.0,37.0,-100.00,WSW,257,6.0,17.0,69,0.00,,,0.54,186.000000,,2013-05-30 02:21:00,
2013-05-29 19:31:00,46.0,35.0,-100.00,South,182,5.0,15.0,64,0.00,,,0.54,70.000000,,2013-05-30 02:31:00,
2013-05-29 20:01:00,46.0,35.0,-100.00,South,182,5.0,15.0,64,0.00,,,0.54,70.000000,,2013-05-30 03:01:00,
2013-05-29 20:11:00,46.0,35.0,-100.00,South,182,5.0,15.0,64,0.00,,,0.54,70.000000,,2013-05-30 03:11:00,
2013-05-29 20:21:00,46.0,35.0,-100.00,South,182,5.0,15.0,64,0.00,,,0.54,70.000000,,2013-05-30 03:21:00,
2013-05-29 20:31:00,45.0,34.0,-100.00,SSW,193,7.0,19.0,66,0.00,,,0.54,23.000000,,2013-05-30 03:31:00,
2013-05-29 20:53:00,45.0,34.0,-100.00,SSW,193,7.0,19.0,66,0.00,,,0.54,23.000000,,2013-05-30 03:53:00,
2013-05-29 21:02:00,45.0,34.0,-100.00,SSW,193,7.0,19.0,66,0.00,,,0.54,23.000000,,2013-05-30 04:02:00,
2013-05-29 21:12:00,45.0,34.0,-100.00,SSW,193,7.0,19.0,66,0.00,,,0.54,23.000000,,2013-05-30 04:12:00,
2013-05-29 21:23:00,45.0,34.0,-100.00,SSW,193,7.0,19.0,66,0.00,,,0.54,23.000000,,2013-05-30 04:23:00,
2013-05-29 21:31:00,43.0,35.0,-100.00,SSW,194,8.0,15.0,74,0.00,,,0.54,1.000000,,2013-05-30 04:31:00,
2013-05-29 21:53:00,43.0,35.0,-100.00,SSW,194,8.0,15.0,74,0.00,,,0.54,1.000000,,2013-05-30 04:53:00,
2013-05-29 22:02:00,43.0,35.0,-100.00,SSW,194,8.0,15.0,74,0.00,,,0.54,1.000000,,2013-05-30 05:02:00,
2013-05-29 22:12:00,43.0,35.0,-100.00,SSW,194,8.0,15.0,74,0.00,,,0.54,1.000000,,2013-05-30 05:12:00,
2013-05-29 22:21:00,43.0,35.0,-100.00,SSW,194,8.0,15.0,74,0.00,,,0.54,1.000000,,2013-05-30 05:21:00,
2013-05-29 22:31:00,41.0,37.0,-100.00,SSW,204,6.0,14.0,84,0.01,,,0.55,0.000000,,2013-05-30 05:31:00,
2013-05-29 22:52:00,41.0,37.0,-100.00,SSW,204,6.0,14.0,84,0.01,,,0.55,0.000000,,2013-05-30 05:52:00,
2013-05-29 23:01:00,41.0,37.0,-100.00,SSW,204,6.0,14.0,84,0.01,,,0.55,0.000000,,2013-05-30 06:01:00,
2013-05-29 23:12:00,41.0,37.0,-100.00,SSW,204,6.0,14.0,84,0.01,,,0.55,0.000000,,2013-05-30 06:12:00,
2013-05-29 23:21:00,41.0,37.0,-100.00,SSW,204,6.0,14.0,84,0.01,,,0.55,0.000000,,2013-05-30 06:21:00,
2013-05-29 23:31:00,41.0,35.0,-100.00,SSE,162,8.0,14.0,79,0.00,,,0.51,0.000000,,2013-05-30 06:31:00,
2013-05-29 23:52:00,41.0,35.0,-100.00,SSE,162,8.0,14.0,79,0.00,,,0.51,0.000000,,2013-05-30 06:52:00,